Home > Weather > Erfurt > Past weeks

Flag for Germany Past Weather in Erfurt, Thuringia, Germany — Yesterday and Last 2 Weeks

Now
70 °F

Scattered clouds.


Feels Like: 70 °F
Forecast: 58 / 76 °F
Wind: 3 mph from West

Location: Erfurt-Bindersleben

Current Time: Jul 27, 2016 at 3:39:52 PM

Latest Report: Jul 27, 2016 at 2:50 PM


Visibility: N/A

Pressure: 30.01 "Hg

Humidity: 83%

Dew Point: 64 °F

Location of ErfurtLocation

Past Weather in Erfurt — Graph

°F

Erfurt Temperature Yesterday

Maximum temperature yesterday: 77 °F (at 5:20 PM)
Minimum temperature yesterday: 64 °F (at 2:20 AM)
Average temperature yesterday: 71 °F

High & Low Weather Summary for the Past Weeks

 TemperatureHumidityPressure
High88 °F (Jul 20, 2:50 PM)100% (Jul 14, 7:50 AM)30.30 "Hg (Jul 14, 7:50 AM)
Low46 °F (Jul 16, 4:50 AM)27% (Jul 20, 2:50 PM)29.89 "Hg (Jul 12, 4:50 PM)
Average67 °F72%30.09 "Hg
* Reported Jul 12 1:20 PM — Jul 27 1:50 PM, Erfurt, Weather by CustomWeather, © 2016

Note: Actual official high and low records may vary slightly from our data, if they occured in-between our weather recording intervals... More about our weather records

Advertising

Erfurt Weather History for the Previous 24 Hours

Scroll right to see more
 ConditionsComfort  
Time TempWeatherWind HumidityBarometerVisibility
1:50 PM
Wed, Jul 27
72 °FThundershowers. Partly sunny.12 mph78%30.01 "HgN/A
1:20 PM73 °FSprinkles. Partly sunny.5 mph74%30.01 "HgN/A
12:50 PM72 °FThundershowers. Partly sunny.3 mph83%30.01 "HgN/A
12:20 PM72 °FThunderstorms. Partly sunny.6 mph78%30.01 "HgN/A
11:50 AM73 °FThunderstorms. Partly sunny.6 mph74%30.01 "HgN/A
11:20 AM73 °FThundershowers. Partly sunny.12 mph74%30.01 "HgN/A
10:50 AM73 °FSprinkles. Partly sunny.6 mph69%30.04 "HgN/A
10:20 AM73 °FBroken clouds.5 mph74%30.04 "HgN/A
9:50 AM72 °FBroken clouds.3 mph78%30.04 "HgN/A
9:20 AM70 °FPassing clouds.5 mph83%30.04 "HgN/A
8:50 AM68 °FBroken clouds.5 mph88%30.04 "HgN/A
8:20 AM68 °FBroken clouds.6 mph88%30.04 "HgN/A
7:50 AM66 °FBroken clouds.6 mph88%30.04 "Hg6 mi
7:20 AM63 °FBroken clouds.5 mph100%30.04 "Hg5 mi
6:50 AM63 °FScattered clouds.3 mph100%30.04 "Hg5 mi
6:20 AM63 °FPassing clouds.5 mph100%30.04 "Hg5 mi
5:50 AM61 °FPassing clouds.8 mph100%30.04 "HgN/A
5:20 AM63 °FPassing clouds.8 mph94%30.04 "HgN/A
4:50 AM63 °FClear.6 mph94%30.04 "Hg10 mi
4:20 AM64 °FClear.5 mph94%30.07 "Hg10 mi
3:50 AM63 °FClear.2 mph100%30.07 "Hg10 mi
3:20 AM64 °FClear.6 mph94%30.07 "Hg10 mi
2:50 AM66 °FClear.6 mph88%30.09 "Hg10 mi
2:20 AM66 °FClear.3 mph88%30.09 "Hg10 mi
1:50 AM68 °FPassing clouds.3 mph83%30.09 "HgN/A
1:20 AM68 °FClear.2 mph83%30.09 "Hg10 mi
12:50 AM68 °FPassing clouds.5 mph83%30.09 "HgN/A
12:20 AM68 °FClear.6 mph78%30.09 "Hg10 mi
11:50 PM
Tue, Jul 26
70 °FClear.5 mph78%30.09 "Hg10 mi
11:20 PM70 °FPassing clouds.3 mph73%30.12 "HgN/A
10:50 PM70 °FPartly cloudy.3 mph73%30.12 "HgN/A
10:20 PM70 °FClear.3 mph73%30.12 "Hg10 mi
9:50 PM72 °FSunny.5 mph69%30.12 "Hg10 mi
9:20 PM72 °FSunny.2 mph69%30.12 "Hg10 mi
8:50 PM72 °FBroken clouds.2 mph69%30.09 "HgN/A
8:20 PM73 °FPartly sunny.2 mph65%30.09 "HgN/A
7:50 PM75 °FPartly sunny.5 mph61%30.09 "HgN/A
7:20 PM75 °FPassing clouds.5 mph57%30.09 "HgN/A
6:50 PM75 °FPartly sunny.5 mph61%30.09 "HgN/A
6:20 PM77 °FScattered clouds.3 mph57%30.09 "HgN/A
5:50 PM77 °FPassing clouds.5 mph61%30.09 "HgN/A
5:20 PM77 °FPassing clouds.6 mph61%30.12 "HgN/A
4:50 PM75 °FPassing clouds.5 mph69%30.12 "HgN/A
4:20 PM73 °FPassing clouds.7 mph74%30.12 "HgN/A
3:50 PM73 °FThunderstorms. Scattered clouds.5 mph74%30.12 "HgN/A
3:20 PM73 °FThunderstorms. Scattered clouds.6 mph69%30.12 "HgN/A
Weather by CustomWeather, © 2016

See weather overviewHow to use our weather pages